Time,TemperatureF,DewpointF,PressureIn,WindDirection,WindDirectionDegrees,WindSpeedMPH,WindSpeedGustMPH,Humidity,HourlyPrecipIn,Conditions,Clouds,dailyrainin,SoftwareType,DateUTC
2013-04-25 00:15:00,47.9,47.0,29.92,West,267,4.0,4.0,97,0.00,,,0.00,weatherlink.com 1.10,2013-04-25 04:15:00,
2013-04-25 00:29:00,48.1,48.0,29.92,WNW,295,3.0,5.0,98,0.00,,,0.00,weatherlink.com 1.10,2013-04-25 04:29:00,
2013-04-25 00:44:00,48.2,48.0,29.92,WNW,288,3.0,6.0,98,0.00,,,0.00,weatherlink.com 1.10,2013-04-25 04:44:00,
2013-04-25 00:59:00,48.4,48.0,29.91,West,273,3.0,6.0,98,0.00,,,0.00,weatherlink.com 1.10,2013-04-25 04:59:00,
2013-04-25 01:14:00,48.5,48.0,29.90,West,262,3.0,6.0,98,0.00,,,0.00,weatherlink.com 1.10,2013-04-25 05:14:00,
2013-04-25 01:29:00,48.6,48.0,29.89,West,270,3.0,6.0,98,0.00,,,0.00,weatherlink.com 1.10,2013-04-25 05:29:00,
2013-04-25 01:44:00,48.6,48.0,29.89,West,262,3.0,6.0,98,0.00,,,0.00,weatherlink.com 1.10,2013-04-25 05:44:00,
2013-04-25 01:59:00,48.9,48.0,29.89,WNW,294,3.0,5.0,98,0.00,,,0.00,weatherlink.com 1.10,2013-04-25 05:59:00,
2013-04-25 02:14:00,48.9,48.0,29.90,West,281,3.0,5.0,98,0.00,,,0.00,weatherlink.com 1.10,2013-04-25 06:14:00,
2013-04-25 02:29:00,49.3,49.0,29.89,West,281,3.0,4.0,97,0.00,,,0.00,weatherlink.com 1.10,2013-04-25 06:29:00,
2013-04-25 02:44:00,49.8,49.0,29.89,WNW,285,3.0,4.0,98,0.00,,,0.00,weatherlink.com 1.10,2013-04-25 06:44:00,
2013-04-25 02:59:00,49.9,49.0,29.89,WNW,290,3.0,6.0,97,0.00,,,0.00,weatherlink.com 1.10,2013-04-25 06:59:00,
2013-04-25 03:14:00,50.4,50.0,29.90,West,274,4.0,6.0,97,0.00,,,0.00,weatherlink.com 1.10,2013-04-25 07:14:00,
2013-04-25 03:29:00,50.3,49.0,29.89,WNW,283,3.0,7.0,96,0.00,,,0.00,weatherlink.com 1.10,2013-04-25 07:29:00,
2013-04-25 03:44:00,50.6,50.0,29.89,WNW,294,2.0,9.0,97,0.00,,,0.00,weatherlink.com 1.10,2013-04-25 07:44:00,
2013-04-25 03:59:00,50.8,50.0,29.89,WNW,298,1.0,3.0,96,0.00,,,0.00,weatherlink.com 1.10,2013-04-25 07:59:00,
2013-04-25 04:14:00,50.5,49.0,29.90,NW,316,1.0,3.0,96,0.00,,,0.00,weatherlink.com 1.10,2013-04-25 08:14:00,
2013-04-25 04:29:00,50.3,49.0,29.90,WNW,294,0.0,4.0,96,0.00,,,0.00,weatherlink.com 1.10,2013-04-25 08:29:00,
2013-04-25 04:44:00,50.3,49.0,29.90,WNW,301,1.0,4.0,96,0.00,,,0.00,weatherlink.com 1.10,2013-04-25 08:44:00,
2013-04-25 04:59:00,50.6,50.0,29.91,NW,315,2.0,9.0,96,0.00,,,0.00,weatherlink.com 1.10,2013-04-25 08:59:00,
2013-04-25 05:14:00,50.8,50.0,29.93,WNW,295,2.0,6.0,96,0.00,,,0.00,weatherlink.com 1.10,2013-04-25 09:14:00,
2013-04-25 05:29:00,51.1,50.0,29.94,NW,312,4.0,8.0,96,0.01,,,0.01,weatherlink.com 1.10,2013-04-25 09:29:00,
2013-04-25 05:44:00,50.6,49.0,29.95,North,358,5.0,7.0,95,0.01,,,0.01,weatherlink.com 1.10,2013-04-25 09:44:00,
2013-04-25 05:59:00,-999.0,-99.9,29.96,North,-999,-999.0,-999.0,-999,0.01,,,0.01,weatherlink.com 1.10,2013-04-25 09:59:00,
2013-04-25 06:14:00,-999.0,-99.9,29.97,North,-999,-999.0,-999.0,-999,0.01,,,0.01,weatherlink.com 1.10,2013-04-25 10:14:00,
2013-04-25 06:30:00,-999.0,-99.9,29.98,North,-999,-999.0,-999.0,-999,0.00,,,0.01,weatherlink.com 1.10,2013-04-25 10:30:00,
2013-04-25 06:45:00,-999.0,-99.9,30.00,North,-999,-999.0,-999.0,-999,0.00,,,0.01,weatherlink.com 1.10,2013-04-25 10:45:00,
2013-04-25 07:00:00,-999.0,-99.9,30.00,North,-999,-999.0,-999.0,-999,0.00,,,0.01,weatherlink.com 1.10,2013-04-25 11:00:00,
2013-04-25 07:15:00,-999.0,-99.9,30.02,North,-999,-999.0,-999.0,-999,0.00,,,0.01,weatherlink.com 1.10,2013-04-25 11:15:00,
2013-04-25 07:30:00,49.9,45.0,30.04,West,274,3.0,6.0,82,0.00,,,0.01,weatherlink.com 1.10,2013-04-25 11:30:00,
2013-04-25 07:45:00,49.5,44.0,30.06,West,280,3.0,5.0,80,0.00,,,0.01,weatherlink.com 1.10,2013-04-25 11:45:00,
2013-04-25 08:00:00,48.2,42.0,30.05,WNW,285,1.0,3.0,80,0.00,,,0.01,weatherlink.com 1.10,2013-04-25 12:00:00,
2013-04-25 08:15:00,46.5,42.0,30.07,West,280,0.0,2.0,84,0.00,,,0.01,weatherlink.com 1.10,2013-04-25 12:15:00,
2013-04-25 08:30:00,47.2,43.0,30.09,WNW,300,3.0,4.0,86,0.00,,,0.01,weatherlink.com 1.10,2013-04-25 12:30:00,
2013-04-25 08:45:00,47.2,42.0,30.08,West,276,2.0,7.0,82,0.00,,,0.01,weatherlink.com 1.10,2013-04-25 12:45:00,
2013-04-25 09:00:00,47.7,42.0,30.09,WNW,293,2.0,5.0,80,0.00,,,0.01,weatherlink.com 1.10,2013-04-25 13:00:00,
2013-04-25 09:15:00,47.8,41.0,30.09,WSW,243,2.0,5.0,77,0.00,,,0.01,weatherlink.com 1.10,2013-04-25 13:15:00,
2013-04-25 09:30:00,49.3,41.0,30.10,West,281,3.0,6.0,74,0.00,,,0.01,weatherlink.com 1.10,2013-04-25 13:30:00,
2013-04-25 09:58:00,50.2,41.0,30.09,WNW,297,4.0,5.0,72,0.00,,,0.01,weatherlink.com 1.10,2013-04-25 13:58:00,
2013-04-25 10:15:00,52.6,41.0,30.10,WSW,250,4.0,8.0,66,0.00,,,0.01,weatherlink.com 1.10,2013-04-25 14:15:00,
2013-04-25 10:30:00,53.9,41.0,30.10,WNW,291,4.0,9.0,62,0.00,,,0.01,weatherlink.com 1.10,2013-04-25 14:30:00,
2013-04-25 10:45:00,54.5,41.0,30.10,WNW,295,5.0,9.0,61,0.00,,,0.01,weatherlink.com 1.10,2013-04-25 14:45:00,
2013-04-25 11:00:00,55.4,41.0,30.11,WNW,294,4.0,7.0,58,0.00,,,0.01,weatherlink.com 1.10,2013-04-25 15:00:00,
2013-04-25 11:15:00,55.9,41.0,30.11,WNW,295,6.0,9.0,57,0.00,,,0.01,weatherlink.com 1.10,2013-04-25 15:15:00,
2013-04-25 11:30:00,56.5,40.0,30.12,WNW,294,5.0,10.0,54,0.00,,,0.01,weatherlink.com 1.10,2013-04-25 15:30:00,
2013-04-25 11:46:00,57.0,40.0,30.12,WSW,245,2.0,8.0,54,0.00,,,0.01,weatherlink.com 1.10,2013-04-25 15:46:00,
2013-04-25 12:01:00,58.1,39.0,30.12,WNW,283,3.0,9.0,50,0.00,,,0.01,weatherlink.com 1.10,2013-04-25 16:01:00,
2013-04-25 12:16:00,58.8,38.0,30.12,WNW,284,4.0,8.0,46,0.00,,,0.01,weatherlink.com 1.10,2013-04-25 16:16:00,
2013-04-25 12:31:00,59.2,40.0,30.13,WNW,300,3.0,7.0,49,0.00,,,0.01,weatherlink.com 1.10,2013-04-25 16:31:00,
2013-04-25 12:46:00,59.4,41.0,30.13,WNW,294,4.0,7.0,50,0.00,,,0.01,weatherlink.com 1.10,2013-04-25 16:46:00,
2013-04-25 13:01:00,59.7,39.0,30.13,WNW,290,4.0,9.0,46,0.00,,,0.01,weatherlink.com 1.10,2013-04-25 17:01:00,
2013-04-25 13:16:00,60.2,38.0,30.13,WNW,300,4.0,8.0,44,0.00,,,0.01,weatherlink.com 1.10,2013-04-25 17:16:00,
2013-04-25 13:31:00,61.0,36.0,30.12,WNW,291,5.0,8.0,39,0.00,,,0.01,weatherlink.com 1.10,2013-04-25 17:31:00,
2013-04-25 13:46:00,60.8,37.0,30.12,NW,319,3.0,8.0,41,0.00,,,0.01,weatherlink.com 1.10,2013-04-25 17:46:00,
2013-04-25 14:01:00,62.0,35.0,30.12,West,277,4.0,7.0,37,0.00,,,0.01,weatherlink.com 1.10,2013-04-25 18:01:00,
2013-04-25 14:16:00,62.4,34.0,30.12,WNW,294,5.0,8.0,34,0.00,,,0.01,weatherlink.com 1.10,2013-04-25 18:16:00,
2013-04-25 14:31:00,62.1,33.0,30.12,NW,305,2.0,7.0,34,0.00,,,0.01,weatherlink.com 1.10,2013-04-25 18:31:00,
2013-04-25 14:46:00,62.2,33.0,30.12,NW,309,3.0,7.0,34,0.00,,,0.01,weatherlink.com 1.10,2013-04-25 18:46:00,
2013-04-25 15:01:00,60.3,38.0,30.12,NW,314,4.0,9.0,44,0.00,,,0.01,weatherlink.com 1.10,2013-04-25 19:01:00,
2013-04-25 15:16:00,59.4,41.0,30.11,West,270,6.0,7.0,50,0.00,,,0.01,weatherlink.com 1.10,2013-04-25 19:16:00,
2013-04-25 15:31:00,57.4,40.0,30.11,WNW,287,5.0,8.0,52,0.00,,,0.01,weatherlink.com 1.10,2013-04-25 19:31:00,
2013-04-25 15:46:00,57.2,41.0,30.12,WNW,293,4.0,7.0,55,0.00,,,0.01,weatherlink.com 1.10,2013-04-25 19:46:00,
2013-04-25 16:01:00,57.1,40.0,30.12,West,280,5.0,9.0,54,0.00,,,0.01,weatherlink.com 1.10,2013-04-25 20:01:00,
2013-04-25 16:16:00,57.6,40.0,30.12,West,269,3.0,6.0,53,0.00,,,0.01,weatherlink.com 1.10,2013-04-25 20:16:00,
2013-04-25 16:31:00,58.7,40.0,30.12,WSW,245,5.0,7.0,51,0.00,,,0.01,weatherlink.com 1.10,2013-04-25 20:31:00,
2013-04-25 16:46:00,60.5,38.0,30.13,West,278,4.0,10.0,44,0.00,,,0.01,weatherlink.com 1.10,2013-04-25 20:46:00,
2013-04-25 17:01:00,59.9,38.0,30.13,NW,324,5.0,13.0,44,0.00,,,0.01,weatherlink.com 1.10,2013-04-25 21:01:00,
2013-04-25 17:16:00,60.0,37.0,30.13,NW,323,4.0,9.0,43,0.00,,,0.01,weatherlink.com 1.10,2013-04-25 21:16:00,
2013-04-25 17:31:00,59.5,36.0,30.14,WNW,293,4.0,12.0,41,0.00,,,0.01,weatherlink.com 1.10,2013-04-25 21:31:00,
2013-04-25 17:46:00,59.6,37.0,30.14,West,262,3.0,6.0,44,0.00,,,0.01,weatherlink.com 1.10,2013-04-25 21:46:00,
2013-04-25 18:01:00,59.2,35.0,30.14,NW,319,3.0,9.0,41,0.00,,,0.01,weatherlink.com 1.10,2013-04-25 22:01:00,
2013-04-25 18:16:00,58.7,37.0,30.14,NW,304,2.0,7.0,44,0.00,,,0.01,weatherlink.com 1.10,2013-04-25 22:16:00,
2013-04-25 18:31:00,58.4,35.0,30.14,WNW,290,4.0,7.0,41,0.00,,,0.01,weatherlink.com 1.10,2013-04-25 22:31:00,
2013-04-25 18:46:00,57.5,33.0,30.15,WNW,302,1.0,6.0,40,0.00,,,0.01,weatherlink.com 1.10,2013-04-25 22:46:00,
2013-04-25 19:01:00,56.7,32.0,30.16,WNW,294,4.0,10.0,40,0.00,,,0.01,weatherlink.com 1.10,2013-04-25 23:01:00,
2013-04-25 19:16:00,55.1,33.0,30.16,WNW,302,2.0,8.0,44,0.00,,,0.01,weatherlink.com 1.10,2013-04-25 23:16:00,
2013-04-25 19:31:00,54.0,33.0,30.17,NNW,336,2.0,4.0,45,0.00,,,0.01,weatherlink.com 1.10,2013-04-25 23:31:00,
2013-04-25 19:46:00,53.3,33.0,30.17,NW,312,0.0,3.0,47,0.00,,,0.01,weatherlink.com 1.10,2013-04-25 23:46:00,
2013-04-25 20:01:00,52.7,33.0,30.18,West,278,0.0,3.0,47,0.00,,,0.01,weatherlink.com 1.10,2013-04-26 00:01:00,
2013-04-25 20:16:00,52.1,33.0,30.18,WNW,295,1.0,3.0,48,0.00,,,0.01,weatherlink.com 1.10,2013-04-26 00:16:00,
2013-04-25 20:31:00,50.3,35.0,30.19,East,98,0.0,1.0,56,0.00,,,0.01,weatherlink.com 1.10,2013-04-26 00:31:00,
2013-04-25 20:46:00,50.1,35.0,30.20,ENE,58,0.0,3.0,57,0.00,,,0.01,weatherlink.com 1.10,2013-04-26 00:46:00,
2013-04-25 21:01:00,49.3,39.0,30.20,WNW,288,0.0,2.0,67,0.00,,,0.01,weatherlink.com 1.10,2013-04-26 01:01:00,
2013-04-25 21:17:00,48.4,39.0,30.21,WNW,294,0.0,2.0,70,0.00,,,0.01,weatherlink.com 1.10,2013-04-26 01:17:00,
2013-04-25 21:32:00,47.9,40.0,30.22,West,276,1.0,1.0,74,0.00,,,0.01,weatherlink.com 1.10,2013-04-26 01:32:00,
2013-04-25 21:47:00,47.8,41.0,30.22,WNW,302,1.0,3.0,76,0.00,,,0.01,weatherlink.com 1.10,2013-04-26 01:47:00,
2013-04-25 22:02:00,48.5,38.0,30.23,NW,319,1.0,2.0,68,0.00,,,0.01,weatherlink.com 1.10,2013-04-26 02:02:00,
2013-04-25 22:17:00,49.1,36.0,30.23,WNW,300,0.0,2.0,62,0.00,,,0.01,weatherlink.com 1.10,2013-04-26 02:17:00,
2013-04-25 22:32:00,48.4,37.0,30.23,NW,304,1.0,2.0,65,0.00,,,0.01,weatherlink.com 1.10,2013-04-26 02:32:00,
2013-04-25 22:47:00,47.3,38.0,30.24,NW,319,0.0,1.0,69,0.00,,,0.01,weatherlink.com 1.10,2013-04-26 02:47:00,
2013-04-25 23:02:00,47.0,36.0,30.24,NW,319,0.0,1.0,66,0.00,,,0.01,weatherlink.com 1.10,2013-04-26 03:02:00,
2013-04-25 23:17:00,46.4,38.0,30.24,NW,316,0.0,1.0,73,0.00,,,0.01,weatherlink.com 1.10,2013-04-26 03:17:00,
2013-04-25 23:32:00,46.8,39.0,30.24,NW,316,0.0,1.0,75,0.00,,,0.01,weatherlink.com 1.10,2013-04-26 03:32:00,
2013-04-25 23:47:00,46.8,41.0,30.25,NW,304,0.0,3.0,79,0.00,,,0.01,weatherlink.com 1.10,2013-04-26 03:47:00,